Location: Columbia
(38.9520°N, 92.3340°W)
Time: 15:30:09
(UTC-05:00)

Iridium 22 - Visible Passes

Search period start: 28 July 2014 00:00
Search period end: 07 August 2014 00:00
Orbit: 776 x 779 km, 86.4° (Epoch: 28 July)

Date Brightness Start Highest point End Pass type
(mag) Time Alt. Az. Time Alt. Az. Time Alt. Az.
28 Jul 7.6 02:10:18 17° E 02:11:18 17° E 02:14:38 10° NE visible
28 Jul 5.8 03:50:47 46° WSW 03:51:32 49° W 03:56:36 10° N visible
29 Jul 5.4 03:17:35 77° S 03:17:59 88° E 03:23:13 10° N visible
30 Jul 6.2 02:44:21 46° E 02:44:32 46° E 02:49:30 10° NNE visible
30 Jul 7.1 04:24:50 18° W 04:25:30 19° WNW 04:29:06 10° NNW visible
31 Jul 7.2 02:11:08 25° E 02:11:13 25° E 02:15:24 10° NNE visible
31 Jul 6.3 03:51:37 34° W 03:51:44 34° W 03:56:27 10° NNW visible
01 Aug 7.9 01:37:53 14° E 01:38:01 14° ENE 01:40:28 10° NE visible
01 Aug 5.6 03:18:22 63° WNW 03:18:22 63° WNW 03:23:16 10° N visible
02 Aug 5.8 02:45:07 63° NE 02:45:07 63° NE 02:49:45 10° N visible
02 Aug 7.5 04:25:36 13° WNW 04:25:49 13° WNW 04:28:03 10° NW visible
03 Aug 6.8 02:11:52 35° ENE 02:11:52 35° ENE 02:15:54 10° NNE visible
03 Aug 6.9 03:52:20 23° WNW 03:52:20 23° WNW 03:56:06 10° NNW visible
04 Aug 7.6 01:38:35 19° ENE 01:38:35 19° ENE 01:41:34 10° NE visible
04 Aug 6.3 03:19:04 40° WNW 03:19:04 40° WNW 03:23:12 10° NNW visible
05 Aug 6.0 02:45:48 55° N 02:45:48 55° N 02:49:53 10° N visible
06 Aug 6.6 02:12:31 42° NE 02:12:31 42° NE 02:16:14 10° NNE visible
06 Aug 7.4 03:52:59 16° WNW 03:52:59 16° WNW 03:55:27 10° NW visible
